CW0608 Weather Reports


time (UTC)temp
F
wind
direction
speed
knots
gust
knots
rain 1hr
in
rain 24hr
in
rain mn
in
humidity
%
barometer
mb
20260510191303 76 98 4.3 7.8 0.00 0.00 0.00 60 1013.7
20260510190303 77 37 1.7 8.7 0.00 0.00 0.00 59 1013.7
20260510185804 77 82 3.5 10.4 0.00 0.00 0.00 59 1013.8
20260510184304 77 28 4.3 7.8 0.00 0.00 0.00 58 1013.9
20260510183304 80 73 0.9 8.7 0.00 0.00 0.00 54 1013.8
20260510182804 82 35 1.7 8.7 0.00 0.00 0.00 45 1013.8
20260510181304 80 284 1.7 7.8 0.00 0.00 0.00 46 1013.8
20260510180805 82 258 4.3 7.8 0.00 0.00 0.00 45 1013.9
20260510175804 80 269 2.6 7.0 0.00 0.00 0.00 46 1013.8
20260510173804 78 262 4.3 8.7 0.00 0.00 0.00 47 1014.0
20260510172306 80 206 3.5 7.0 0.00 0.00 0.00 46 1014.0
20260510171804 80 315 1.7 7.0 0.00 0.00 0.00 48 1014.0
20260510171303 80 264 1.7 7.0 0.00 0.00 0.00 46 1013.9
20260510165803 79 142 2.6 14.8 0.00 0.00 0.00 47 1014.0
20260510165306 80 224 3.5 14.8 0.00 0.00 0.00 47 1014.0
20260510163803 80 178 3.5 10.4 0.00 0.00 0.00 48 1013.9
20260510163303 80 166 6.1 10.4 0.00 0.00 0.00 49 1014.0
20260510161303 78 177 1.7 7.8 0.00 0.00 0.00 48 1014.1
20260510160804 79 245 2.6 7.8 0.00 0.00 0.00 48 1014.2
20260510155804 77 176 1.7 5.2 0.00 0.00 0.00 53 1014.2
20260510154805 77 322 2.6 7.0 0.00 0.00 0.00 52 1014.3
20260510154303 77 207 1.7 5.2 0.00 0.00 0.00 56 1014.3
20260510153803 76 218 1.7 5.2 0.00 0.00 0.00 55 1014.3
20260510152804 76 226 2.6 7.0 0.00 0.00 0.00 56 1014.4
20260510150804 75 256 2.6 7.0 0.00 0.00 0.00 57 1014.2
20260510150305 74 276 4.3 8.7 0.00 0.00 0.00 59 1014.3
20260510144805 74 273 4.3 10.4 0.00 0.00 0.00 60 1014.1
20260510144306 73 277 3.5 7.8 0.00 0.00 0.00 61 1014.0
20260510143803 73 281 1.7 8.7 0.00 0.00 0.00 60 1014.0
20260510143304 72 278 3.5 8.7 0.00 0.00 0.00 60 1014.0
20260510142803 72 199 3.5 10.4 0.00 0.00 0.00 59 1013.9
20260510141804 71 243 2.6 7.0 0.00 0.00 0.00 60 1014.0
20260510133303 66 140 0.9 2.6 0.00 0.00 0.00 78 1014.1
20260510132805 66 138 0.9 1.7 0.00 0.00 0.00 80 1014.1
20260510131304 64 139 1.7 2.6 0.00 0.00 0.00 82 1013.9
20260510130805 63 271 0.9 2.6 0.00 0.00 0.00 83 1014.0
20260510125803 62 265 0.9 2.6 0.00 0.00 0.00 83 1014.1
20260510125306 61 265 1.7 2.6 0.00 0.00 0.00 83 1014.1
20260510124803 61 265 1.7 2.6 0.00 0.00 0.00 84 1014.3
20260510124305 61 238 0.9 2.6 0.00 0.00 0.00 84 1014.4
20260510123805 61 216 1.7 2.6 0.00 0.00 0.00 85 1014.4
20260510122804 60 265 0.9 2.6 0.00 0.00 0.00 87 1014.3
20260510121805 59 265 1.7 2.6 0.00 0.00 0.00 89 1014.2
20260510121303 58 267 1.7 2.6 0.00 0.00 0.00 90 1014.3
20260510115805 57 268 1.7 2.6 0.00 0.00 0.00 93 1014.0
20260510114804 56 215 0.9 2.6 0.00 0.00 0.00 95 1014.0
20260510113804 55 215 0.9 2.6 0.00 0.00 0.00 96 1013.8
20260510112803 54 208 0.9 2.6 0.00 0.00 0.00 97 1013.7
20260510111804 53 277 0.9 2.6 0.00 0.00 0.00 97 1013.6
20260510110304 51 280 1.7 5.2 0.00 0.00 0.00 97 1013.5
20260510105306 50 286 0.0 0.9 0.00 0.00 0.00 96 1013.4
20260510103804 49 286 0.9 0.9 0.00 0.00 0.00 96 1013.2
20260510102805 49 286 0.0 2.6 0.00 0.00 0.00 96 1013.1
20260510100305 48 190 0.0 0.0 0.00 0.00 0.00 96 1012.4
20260510094804 49 190 0.0 0.0 0.00 0.00 0.00 96 1012.4
20260510093305 49 292 0.0 0.0 0.00 0.00 0.00 96 1012.3
20260510092307 49 292 0.0 0.0 0.00 0.00 0.00 96 1012.4
20260510091804 49 292 0.0 0.0 0.00 0.00 0.00 96 1012.4
20260510085805 49 292 0.0 0.9 0.00 0.00 0.00 96 1012.4
20260510085306 50 292 0.0 1.7 0.00 0.00 0.00 96 1012.4
20260510082805 50 284 0.0 4.3 0.00 0.00 0.00 96 1012.3
20260510081304 49 256 0.9 2.6 0.00 0.00 0.00 96 1012.2
20260510080805 49 96 0.0 0.9 0.00 0.00 0.00 95 1012.1
20260510080306 49 96 0.0 0.9 0.00 0.00 0.00 95 1012.0
20260510074804 49 96 0.0 0.9 0.00 0.00 0.00 95 1011.7
20260510074305 49 96 0.0 0.9 0.00 0.00 0.00 95 1011.8
20260510072804 49 96 0.0 0.9 0.00 0.00 0.00 95 1011.8
20260510071804 50 96 0.0 0.9 0.00 0.00 0.00 95 1011.6
20260510070304 50 96 0.0 0.9 0.00 0.00 0.00 95 1011.5
20260510065804 50 96 0.0 0.9 0.00 0.00 0.00 95 1011.4
20260510064304 50 96 0.0 0.9 0.00 0.00 0.00 95 1011.2
20260510063306 50 96 0.0 0.9 0.00 0.00 0.00 95 1011.1
20260510061305 50 96 0.0 0.0 0.00 0.00 0.00 95 1011.2
20260510055805 51 96 0.0 0.9 0.00 0.00 0.00 95 1011.3
20260510054804 51 96 0.0 0.9 0.00 0.00 0.00 95 1011.4
20260510054304 51 96 0.0 0.9 0.00 0.00 0.00 94 1011.4
20260510050805 52 96 0.0 0.0 0.00 0.00 0.00 94 1011.5
20260510050305 52 96 0.0 0.9 0.00 0.00 0.00 94 1011.5
20260510045306 52 96 0.0 0.9 0.00 0.00 0.00 94 1011.6
20260510043304 53 96 0.0 0.0 0.00 0.00 0.00 94 1011.6
20260510042804 53 96 0.0 0.9 0.00 0.00 0.00 93 1011.7
20260510041304 53 96 0.0 0.9 0.00 0.00 0.00 93 1011.7
20260510034305 54 96 0.0 1.7 0.00 0.00 0.00 93 1011.7
20260510033806 54 96 0.0 1.7 0.00 0.00 0.00 92 1011.6
20260510032805 54 96 0.0 0.0 0.00 0.00 0.00 92 1011.6
20260510032306 54 96 0.0 0.0 0.00 0.00 0.00 92 1011.5
20260510031805 54 96 0.0 0.0 0.00 0.00 0.00 92 1011.6
20260510031305 54 96 0.0 0.0 0.00 0.00 0.00 92 1011.6
20260510030304 55 96 0.0 0.0 0.00 0.00 0.00 91 1011.5
20260510024805 55 96 0.0 0.9 0.00 0.00 0.00 90 1011.3
20260510023305 56 96 0.0 2.6 0.00 0.00 0.00 90 1011.3
20260510022805 56 102 0.9 2.6 0.00 0.00 0.00 89 1011.4
20260510022306 56 103 0.0 0.0 0.00 0.00 0.00 89 1011.2
20260510021805 56 103 0.0 0.0 0.00 0.00 0.00 89 1011.3
20260510021305 56 103 0.0 0.9 0.00 0.00 0.00 88 1011.4
20260510020304 57 103 0.0 1.7 0.00 0.00 0.00 88 1011.3
20260510015804 57 103 0.0 1.7 0.00 0.00 0.00 88 1011.2
20260510014805 57 103 0.0 1.7 0.00 0.00 0.00 87 1011.1
20260510013304 58 103 1.7 2.6 0.00 0.00 0.00 86 1010.9
20260510012804 58 106 0.9 1.7 0.00 0.00 0.00 85 1010.9
20260510005804 59 81 0.9 2.6 0.00 0.00 0.00 84 1010.7
20260510003305 60 133 0.9 2.6 0.00 0.00 0.00 82 1010.4
20260510001304 61 63 1.7 2.6 0.00 0.00 0.00 80 1010.3
20260510000804 61 75 1.7 2.6 0.00 0.00 0.00 79 1010.3
20260510000305 62 68 1.7 2.6 0.00 0.00 0.00 78 1010.3
20260509235306 62 65 0.9 2.6 0.00 0.00 0.00 78 1010.2
20260509234304 63 74 1.7 2.6 0.00 0.00 0.00 77 1010.1
20260509232805 64 33 0.9 6.1 0.00 0.00 0.00 76 1010.1
20260509231804 64 41 1.7 7.0 0.00 0.00 0.00 75 1009.9
20260509230305 66 57 2.6 8.7 0.00 0.00 0.00 73 1009.7
20260509225804 66 59 1.7 4.3 0.00 0.00 0.00 73 1009.7
20260509225306 66 66 0.9 4.3 0.00 0.00 0.00 73 1009.6
20260509224804 66 58 1.7 4.3 0.00 0.00 0.00 73 1009.7
20260509223806 66 87 1.7 7.0 0.00 0.00 0.00 72 1009.7
20260509223305 66 49 2.6 7.0 0.00 0.00 0.00 71 1009.8
20260509222307 67 71 1.7 7.8 0.00 0.00 0.00 70 1009.7
20260509221804 67 5 2.6 7.8 0.00 0.00 0.00 69 1009.7
20260509220805 67 118 2.6 6.1 0.00 0.00 0.00 70 1009.8
20260509220304 67 45 2.6 7.8 0.00 0.00 0.00 70 1009.9
20260509214305 68 55 1.7 4.3 0.00 0.00 0.00 70 1009.9
20260509213805 68 13 1.7 2.6 0.00 0.00 0.00 69 1009.8
20260509213305 68 67 1.7 2.6 0.00 0.00 0.00 66 1009.8
20260509212306 68 44 0.9 2.6 0.00 0.00 0.00 68 1009.8
20260509211306 69 116 0.9 2.6 0.00 0.00 0.00 66 1009.6
20260509205806 69 215 1.7 6.1 0.00 0.00 0.00 66 1009.5
20260509205307 69 58 1.7 5.2 0.00 0.00 0.00 64 1009.6
20260509204304 70 212 3.5 6.1 0.00 0.00 0.00 64 1009.6
20260509203304 70 128 1.7 7.0 0.00 0.00 0.00 66 1009.5
20260509195306 69 133 0.9 4.3 0.00 0.00 0.00 62 1010.1
20260509194805 69 53 1.7 4.3 0.00 0.00 0.00 63 1010.2